This demonstration page uses our WeatherBlox Daily Observations layout. Learn more.

Left ArrowRight Arrow

41.86663, -103.66717

Hourly Observations for March 8, 2020

Temp ( °F °C ) Dew Point ( °F °C ) Humidity (%) Winds ( mph kmh ) Pressure ( in mb ) Visibility ( mi km ) Precip ( " mm )
12:53 am 00:53 Clear 32 undefined 23 -5 69 69 WNW 8 13 29.69 1006 10 16 N/A
1:53 am 01:53 Clear 31 -0.6 22 -5.6 69 69 WNW 5 7 29.70 1006 10 16 N/A
3:53 am 03:53 Clear 31 -0.6 23 -5 72 72 NW 6 9 29.70 1006 10 16 N/A
4:53 am 04:53 Partly Cloudy 35 1.7 25 -3.9 67 67 WNW 8 13 29.70 1006 10 16 N/A
5:53 am 05:53 Mostly Cloudy 36 2.2 25 -3.9 64 64 N 7 11 29.71 1006 10 16 N/A
6:53 am 06:53 Clear 33 0.6 25 -3.9 72 72 W 3 6 29.77 1008 10 16 N/A
7:53 am 07:53 Sunny 34 1.1 25 -3.9 70 70 NW 9 15 29.78 1009 10 16 N/A
8:53 am 08:53 Sunny 39 3.9 27 -2.8 62 62 WNW 7 11 29.79 1009 10 16 N/A
9:53 am 09:53 Sunny 46 7.8 30 -1.1 54 54 WNW 5 7 29.80 1009 10 16 N/A
10:53 am 10:53 Sunny 51 10.6 32 undefined 48 48 NW 9 15 29.82 1010 10 16 N/A
11:53 am 11:53 Sunny 60 15.6 35 1.7 39 39 WNW 13 20 29.79 1009 10 16 N/A
12:53 pm 12:53 Mostly Sunny 67 19.4 33 0.6 28 28 WNW 22 35 29.76 1008 10 16 N/A
1:53 pm 13:53 Sunny 66 18.9 33 0.6 29 29 WNW 23 37 29.75 1008 10 16 N/A
2:53 pm 14:53 Sunny 65 18.3 31 -0.6 28 28 WNW 21 33 29.75 1007 10 16 N/A
3:53 pm 15:53 Sunny 67 19.4 30 -1.1 25 25 WNW 20 31 29.74 1007 10 16 N/A
4:51 pm 16:51 Mostly Sunny 61 16 34 1 36 36 N 15 24 29.67 1005 10 16 N/A
4:53 pm 16:53 Mostly Sunny 61 16.1 34 1.1 36 36 N 17 28 29.78 1008 10 16 N/A
5:53 pm 17:53 Cloudy 55 12.8 35 1.7 47 47 N 21 33 29.82 1010 10 16 N/A
6:53 pm 18:53 Cloudy 48 8.9 33 0.6 56 56 NNE 16 26 29.89 1012 10 16 N/A
7:53 pm 19:53 Cloudy with Light Rain 43 6.1 32 undefined 65 65 NW 12 19 29.98 1015 10 16 0.00 0.00
8:53 pm 20:53 Cloudy with Light Rain 40 4.4 34 1.1 79 79 ENE 12 19 29.99 1016 10 16 0.00 0.00
9:01 pm 21:01 Cloudy 40 4.4 34 1.1 79 79 E 10 17 30.02 1017 10 16 0.00 0.00
9:53 pm 21:53 Cloudy with Light Rain 39 3.9 35 1.7 86 86 NE 7 11 29.98 1015 10 16 0.03 0.76
10:35 pm 22:35 Cloudy 38 3.3 35 1.7 89 89 ENE 7 11 30.07 1018 10 16 0.00 0.00
10:53 pm 22:53 Cloudy with Light Rain 38 3.3 34 1.1 86 86 ENE 8 13 30.00 1016 10 16 0.00 0.00
11:11 pm 23:11 Cloudy with Light Rain 36 2.2 34 1.1 93 93 ENE 6 9 30.08 1018 7 11 0.01 0.25
11:21 pm 23:21 Cloudy with Light Snow 36 2.2 34 1.1 93 93 N N/A 30.09 1019 9 14 0.01 0.25
11:53 pm 23:53 Cloudy with Light Snow 35 1.7 33 0.6 93 93 NNE 7 11 29.98 1015 3 4 0.03 0.76

Powered by AerisWeather